GW5679 Weather Reports


Display with metric or nautical units.
time (UTC)temp
F
wind
direction
speed
MPH
gust
MPH
rain 1hr
in
rain 24hr
in
rain mn
in
humidity
%
barometer
mb
20260901101146 82 324 5.0 6.0 0.00 0.00 0.00 83 1013.4
20260901100640 82 342 4.0 4.0 0.00 0.00 0.00 83 1013.6
20260901100136 82 260 2.0 3.0 0.00 0.00 0.00 83 1013.6
20260901095633 82 333 2.0 3.0 0.00 0.00 0.00 82 1013.5
20260901095131 82 223 2.0 3.0 0.00 0.00 0.00 82 1013.4
20260901094626 82 247 3.0 3.0 0.00 0.00 0.00 82 1013.4
20260901094121 82 278 2.0 3.0 0.00 0.00 0.00 82 1013.7
20260901093615 82 119 1.0 2.0 0.00 0.00 0.00 82 1013.8
20260901093115 82 110 2.0 2.0 0.00 0.00 0.00 82 1013.6
20260901092611 82 202 1.0 1.0 0.00 0.00 0.00 82 1013.6
20260901092107 82 243 2.0 3.0 0.00 0.00 0.00 82 1013.7
20260901091602 82 165 0.0 2.0 0.00 0.00 0.00 82 1013.6
20260901091058 82 164 1.0 2.0 0.00 0.00 0.00 82 1013.7
20260901090556 83 156 1.0 2.0 0.00 0.00 0.00 81 1013.7
20260901090053 83 280 2.0 3.0 0.00 0.00 0.00 81 1013.8
20260901085548 83 156 2.0 3.0 0.00 0.00 0.00 81 1013.7
20260901085044 83 282 2.0 3.0 0.00 0.00 0.00 81 1013.8
20260901084540 83 148 1.0 3.0 0.00 0.00 0.00 81 1013.7
20260901084037 83 253 3.0 4.0 0.00 0.00 0.00 80 1014.0
20260901083536 83 175 2.0 4.0 0.00 0.00 0.00 80 1013.6
20260901083034 83 264 2.0 3.0 0.00 0.00 0.00 79 1013.7
20260901082530 84 283 3.0 6.0 0.00 0.00 0.00 79 1013.6
20260901082025 84 258 4.0 4.0 0.00 0.00 0.00 78 1013.8
20260901081520 84 257 4.0 6.0 0.00 0.00 0.00 78 1013.7
20260901081015 84 220 2.0 6.0 0.00 0.00 0.00 78 1013.6
20260901080514 84 237 2.0 2.0 0.00 0.00 0.00 78 1013.8
20260901080013 84 243 3.0 3.0 0.00 0.00 0.00 79 1013.9
20260901075510 84 224 2.0 3.0 0.00 0.00 0.00 79 1013.9
20260901075009 84 168 0.0 1.0 0.00 0.00 0.00 78 1013.9
20260901074509 84 181 1.0 2.0 0.00 0.00 0.00 78 1014.1
20260901074004 84 193 2.0 2.0 0.00 0.00 0.00 78 1013.8
20260901073501 84 210 1.0 2.0 0.00 0.00 0.00 79 1013.9
20260901073001 84 166 1.0 1.0 0.00 0.00 0.00 78 1013.8
20260901072456 84 203 1.0 2.0 0.00 0.00 0.00 78 1014.0
20260901071951 84 209 2.0 2.0 0.00 0.00 0.00 78 1013.8
20260901071450 84 176 0.0 0.0 0.00 0.00 0.00 78 1013.9
20260901070949 84 178 0.0 0.0 0.00 0.00 0.00 78 1013.8
20260901070444 83 185 0.0 0.0 0.00 0.00 0.00 79 1014.0
20260901065943 83 170 0.0 0.0 0.00 0.00 0.00 79 1014.0
20260901065434 84 164 0.0 0.0 0.00 0.00 0.00 78 1014.0
20260901064928 84 167 0.0 0.0 0.00 0.00 0.00 78 1013.8
20260901064425 84 172 0.0 0.0 0.00 0.00 0.00 78 1014.0
20260901063922 84 172 0.0 0.0 0.00 0.00 0.00 78 1014.1
20260901063418 84 156 0.0 0.0 0.00 0.00 0.00 78 1014.1
20260901062914 84 170 0.0 1.0 0.00 0.00 0.00 78 1014.0
20260901062410 84 174 2.0 2.0 0.00 0.00 0.00 78 1014.0
20260901061905 84 181 0.0 0.0 0.00 0.00 0.00 77 1014.2
20260901061401 84 166 0.0 1.0 0.00 0.00 0.00 76 1014.1
20260901060855 84 139 0.0 2.0 0.00 0.00 0.00 76 1014.1
20260901060351 85 164 0.0 0.0 0.00 0.00 0.00 76 1014.2
20260901055850 85 148 1.0 3.0 0.00 0.00 0.00 76 1014.2
20260901055346 85 182 2.0 2.0 0.00 0.00 0.00 77 1014.1
20260901054843 85 145 1.0 2.0 0.00 0.00 0.00 77 1014.2
20260901054340 85 147 1.0 3.0 0.00 0.00 0.00 77 1014.1
20260901053836 85 163 2.0 3.0 0.00 0.00 0.00 77 1014.1
20260901053331 84 148 0.0 2.0 0.00 0.00 0.00 77 1014.1
20260901052826 84 164 0.0 0.0 0.00 0.00 0.00 77 1014.0
20260901052322 85 162 0.0 1.0 0.00 0.00 0.00 77 1014.1
20260901051820 85 179 2.0 3.0 0.00 0.00 0.00 77 1014.0
20260901051316 85 170 2.0 3.0 0.00 0.00 0.00 77 1014.0
20260901050810 85 141 3.0 3.0 0.00 0.00 0.00 77 1014.0
20260901050306 85 172 0.0 1.0 0.00 0.00 0.00 77 1014.0
20260901045801 85 161 0.0 2.0 0.00 0.00 0.00 77 1013.8
20260901045255 85 139 1.0 3.0 0.00 0.00 0.00 77 1013.6
20260901044751 85 111 2.0 3.0 0.00 0.00 0.00 76 1013.7
20260901044247 85 150 1.0 2.0 0.00 0.00 0.00 76 1013.9
20260901043743 85 143 1.0 1.0 0.00 0.00 0.00 76 1013.9
20260901043238 85 158 0.0 1.0 0.00 0.00 0.00 76 1013.6
20260901042732 85 144 0.0 0.0 0.00 0.00 0.00 75 1013.8
20260901042232 86 144 1.0 3.0 0.00 0.00 0.00 75 1013.9
20260901041728 86 197 3.0 3.0 0.00 0.00 0.00 75 1013.8
20260901041228 86 144 1.0 3.0 0.00 0.00 0.00 75 1013.9
20260901040723 86 150 2.0 3.0 0.00 0.00 0.00 75 1013.7
20260901040222 86 144 4.0 4.0 0.00 0.00 0.00 74 1013.7
20260901035720 86 181 4.0 4.0 0.00 0.00 0.00 74 1013.8
20260901035220 86 175 3.0 4.0 0.00 0.00 0.00 74 1013.7
20260901034719 86 188 3.0 6.0 0.00 0.00 0.00 74 1013.9
20260901034214 86 141 4.0 6.0 0.00 0.00 0.00 74 1013.7
20260901033714 86 156 3.0 4.0 0.00 0.00 0.00 74 1013.7
20260901033213 86 141 3.0 4.0 0.00 0.00 0.00 74 1013.6
20260901032712 86 147 3.0 6.0 0.00 0.00 0.00 73 1013.7
20260901032212 86 145 2.0 4.0 0.00 0.00 0.00 72 1013.7
20260901031708 86 136 4.0 7.0 0.00 0.00 0.00 72 1013.6
20260901031204 87 146 4.0 6.0 0.00 0.00 0.00 71 1013.5
20260901030659 87 177 2.0 4.0 0.00 0.00 0.00 70 1013.4
20260901030159 87 163 2.0 6.0 0.00 0.00 0.00 70 1013.4
20260901025653 87 141 3.0 4.0 0.00 0.00 0.00 69 1013.2
20260901025148 87 209 3.0 4.0 0.00 0.00 0.00 69 1013.1
20260901024648 87 194 2.0 3.0 0.00 0.00 0.00 68 1013.0
20260901024147 87 191 2.0 6.0 0.00 0.00 0.00 68 1013.1
20260901023646 87 190 3.0 4.0 0.00 0.00 0.00 68 1012.9
20260901023141 87 141 2.0 4.0 0.00 0.00 0.00 67 1012.9
20260901022636 87 163 1.0 3.0 0.00 0.00 0.00 67 1012.6
20260901022131 87 166 2.0 2.0 0.00 0.00 0.00 67 1012.7
20260901021627 87 150 2.0 4.0 0.00 0.00 0.00 67 1012.6
20260901021122 87 165 2.0 6.0 0.00 0.00 0.00 66 1012.7
20260901020618 88 139 3.0 4.0 0.00 0.00 0.00 66 1012.5
20260901020113 88 161 2.0 3.0 0.00 0.00 0.00 66 1012.5
20260901015614 88 140 4.0 4.0 0.00 0.00 0.00 66 1012.5
20260901015113 88 163 6.0 7.0 0.00 0.00 0.00 66 1012.5
20260901014608 88 150 3.0 4.0 0.00 0.00 0.00 66 1012.5
20260901014104 88 198 4.0 7.0 0.00 0.00 0.00 66 1012.5
20260901013600 88 168 2.0 3.0 0.00 0.00 0.00 66 1012.6
20260901013056 88 133 2.0 3.0 0.00 0.00 0.00 66 1012.2
20260901012555 88 161 0.0 3.0 0.00 0.00 0.00 66 1012.5
20260901012050 88 147 4.0 7.0 0.00 0.00 0.00 65 1012.3
20260901011547 88 151 3.0 3.0 0.00 0.00 0.00 66 1012.3
20260901011044 88 127 2.0 2.0 0.00 0.00 0.00 66 1012.6
20260901010540 88 130 1.0 4.0 0.00 0.00 0.00 65 1012.5
20260901010039 88 133 4.0 4.0 0.00 0.00 0.00 65 1012.3
20260901005534 89 156 4.0 7.0 0.00 0.00 0.00 64 1012.4
20260901005029 89 150 4.0 7.0 0.00 0.00 0.00 63 1012.5
20260901004529 89 140 2.0 3.0 0.00 0.00 0.00 63 1012.6
20260901004024 89 165 5.0 7.0 0.00 0.00 0.00 62 1012.5
20260901003519 90 134 5.0 6.0 0.00 0.00 0.00 61 1012.7
20260901003017 90 151 2.0 3.0 0.00 0.00 0.00 61 1012.5
20260901002517 90 128 3.0 4.0 0.00 0.00 0.00 60 1012.6
20260901002012 90 152 2.0 4.0 0.00 0.00 0.00 60 1012.6
20260901001507 90 134 2.0 4.0 0.00 0.00 0.00 60 1012.5
20260901001003 91 161 4.0 4.0 0.00 0.00 0.00 59 1012.6
20260901000502 91 149 4.0 6.0 0.00 0.00 0.00 59 1012.5
20260901000002 91 152 3.0 3.0 0.00 0.00 0.00 59 1012.4
20260831235457 91 165 2.0 4.0 0.00 0.00 0.00 59 1012.5
20260831234952 91 130 5.0 7.0 0.00 0.00 0.00 58 1012.4
20260831234447 91 122 2.0 3.0 0.00 0.00 0.00 58 1012.5
20260831233942 92 138 2.0 3.0 0.00 0.00 0.00 58 1012.6
20260831233437 91 137 2.0 4.0 0.00 0.00 0.00 59 1012.5
20260831232933 92 154 4.0 6.0 0.00 0.00 0.00 59 1012.5
20260831232429 91 144 1.0 3.0 0.00 0.00 0.00 59 1012.6
20260831231924 91 169 2.0 4.0 0.00 0.00 0.00 59 1012.6
20260831231421 91 199 5.0 7.0 0.00 0.00 0.00 59 1012.5
20260831230917 92 170 6.0 7.0 0.00 0.00 0.00 59 1012.6
20260831230417 92 142 1.0 2.0 0.00 0.00 0.00 59 1012.3
20260831225911 91 135 2.0 2.0 0.00 0.00 0.00 59 1012.6
20260831225407 91 113 3.0 6.0 0.00 0.00 0.00 59 1012.5
20260831224901 91 123 3.0 6.0 0.00 0.00 0.00 59 1012.7
20260831224401 91 143 2.0 6.0 0.00 0.00 0.00 59 1012.4
20260831223856 91 129 2.0 3.0 0.00 0.00 0.00 59 1012.6
20260831223352 92 132 5.0 7.0 0.00 0.00 0.00 58 1012.7
20260831222849 91 202 2.0 6.0 0.00 0.00 0.00 58 1012.7
20260831222344 92 135 2.0 4.0 0.00 0.00 0.00 57 1012.7
20260831221839 92 167 2.0 3.0 0.00 0.00 0.00 56 1012.8
20260831221334 91 169 2.0 3.0 0.00 0.00 0.00 56 1012.8
20260831220829 91 160 5.0 7.0 0.00 0.00 0.00 57 1012.7
20260831220325 91 157 0.0 6.0 0.00 0.00 0.00 57 1012.7
20260831215820 91 102 3.0 3.0 0.00 0.00 0.00 58 1012.7
20260831215316 92 176 3.0 4.0 0.00 0.00 0.00 57 1012.9
20260831214812 91 141 2.0 6.0 0.00 0.00 0.00 57 1013.0
20260831214309 91 152 3.0 6.0 0.00 0.00 0.00 57 1012.9
20260831213804 91 157 4.0 6.0 0.00 0.00 0.00 56 1013.2
20260831213301 91 112 2.0 4.0 0.00 0.00 0.00 57 1013.0
20260831212755 91 160 4.0 6.0 0.00 0.00 0.00 56 1013.2
20260831212252 91 162 4.0 6.0 0.00 0.00 0.00 56 1013.2
20260831211750 91 137 4.0 7.0 0.00 0.00 0.00 56 1013.4
20260831211246 91 134 2.0 4.0 0.00 0.00 0.00 55 1013.3
20260831210746 91 119 2.0 4.0 0.00 0.00 0.00 54 1013.4
20260831210242 91 141 3.0 3.0 0.00 0.00 0.00 53 1013.3
20260831205741 91 102 2.0 4.0 0.00 0.00 0.00 51 1013.7
20260831205238 90 156 0.0 2.0 0.00 0.00 0.00 52 1013.6
20260831204737 89 332 5.0 9.0 0.00 0.00 0.00 53 1013.7
20260831204237 89 92 2.0 2.0 0.00 0.00 0.00 57 1013.8
20260831203736 88 22 6.0 7.0 0.00 0.00 0.00 58 1013.8
20260831203231 88 93 6.0 10.0 0.00 0.00 0.00 57 1014.2
20260831202729 89 49 5.0 7.0 0.00 0.00 0.00 57 1014.0
20260831202224 90 130 1.0 3.0 0.00 0.00 0.00 56 1014.1
20260831201719 90 10 2.0 3.0 0.00 0.00 0.00 58 1014.0
20260831201218 90 184 2.0 4.0 0.00 0.00 0.00 58 1014.0
20260831200714 91 191 3.0 4.0 0.00 0.00 0.00 58 1014.0
20260831200214 91 150 3.0 7.0 0.00 0.00 0.00 59 1013.8
20260831195709 92 143 2.0 6.0 0.00 0.00 0.00 59 1014.0
20260831195205 92 149 2.0 6.0 0.00 0.00 0.00 59 1014.0
20260831194659 93 349 2.0 4.0 0.00 0.00 0.00 59 1014.0
20260831194155 93 179 2.0 4.0 0.00 0.00 0.00 59 1014.1
20260831193649 93 107 3.0 7.0 0.00 0.00 0.00 59 1014.3
20260831193144 92 138 3.0 7.0 0.00 0.00 0.00 61 1014.1
20260831192639 92 151 5.0 9.0 0.00 0.00 0.00 61 1014.4
20260831192135 93 150 5.0 7.0 0.00 0.00 0.00 59 1014.5
20260831191631 93 127 4.0 7.0 0.00 0.00 0.00 59 1014.5
20260831191127 94 139 4.0 6.0 0.00 0.00 0.00 56 1014.5
20260831190622 95 171 3.0 4.0 0.00 0.00 0.00 53 1014.2
20260831190121 95 134 0.0 3.0 0.00 0.00 0.00 54 1014.3
20260831185616 96 177 3.0 4.0 0.00 0.00 0.00 51 1014.5
20260831185112 96 64 3.0 4.0 0.00 0.00 0.00 50 1014.4
20260831184611 96 180 3.0 4.0 0.00 0.00 0.00 50 1014.7
20260831184107 96 168 2.0 2.0 0.00 0.00 0.00 50 1014.5
20260831183601 95 102 2.0 2.0 0.00 0.00 0.00 52 1014.6
20260831183100 95 144 2.0 2.0 0.00 0.00 0.00 52 1014.8
20260831182600 95 176 3.0 7.0 0.00 0.00 0.00 53 1014.8
20260831182056 94 156 2.0 2.0 0.00 0.00 0.00 54 1014.8
20260831181555 94 143 4.0 4.0 0.00 0.00 0.00 53 1015.0
20260831181055 96 200 2.0 7.0 0.00 0.00 0.00 52 1015.0
20260831180550 95 134 4.0 4.0 0.00 0.00 0.00 53 1015.1
20260831180046 94 138 0.0 1.0 0.00 0.00 0.00 53 1015.2
20260831175536 93 134 2.0 2.0 0.00 0.00 0.00 54 1015.2
20260831175032 93 65 0.0 1.0 0.00 0.00 0.00 55 1015.1
20260831174526 93 84 2.0 4.0 0.00 0.00 0.00 55 1015.1
20260831174026 93 124 2.0 7.0 0.00 0.00 0.00 56 1015.2
20260831173524 92 154 1.0 2.0 0.00 0.00 0.00 57 1015.0
20260831173021 93 69 2.0 8.0 0.00 0.00 0.00 57 1015.3
20260831172516 94 175 3.0 3.0 0.00 0.00 0.00 54 1015.5
20260831172011 95 102 1.0 4.0 0.00 0.00 0.00 52 1015.5
20260831171507 95 162 0.0 2.0 0.00 0.00 0.00 53 1015.5
20260831171003 94 207 1.0 2.0 0.00 0.00 0.00 53 1015.5
20260831170459 93 169 1.0 2.0 0.00 0.00 0.00 56 1015.3
20260831165956 94 119 1.0 4.0 0.00 0.00 0.00 55 1015.5
20260831165456 95 102 0.0 2.0 0.00 0.00 0.00 53 1015.3
20260831164953 94 130 1.0 3.0 0.00 0.00 0.00 54 1015.6
20260831164449 95 140 2.0 2.0 0.00 0.00 0.00 52 1015.6
20260831163944 96 174 2.0 3.0 0.00 0.00 0.00 51 1015.5
20260831163440 94 131 1.0 2.0 0.00 0.00 0.00 54 1015.6
20260831162938 92 145 1.0 2.0 0.00 0.00 0.00 57 1015.6
20260831162434 94 67 3.0 6.0 0.00 0.00 0.00 56 1015.5
20260831161932 94 164 1.0 2.0 0.00 0.00 0.00 55 1015.5
20260831161429 95 136 1.0 3.0 0.00 0.00 0.00 53 1015.6
20260831160924 94 153 3.0 3.0 0.00 0.00 0.00 54 1015.6
20260831160419 94 89 3.0 3.0 0.00 0.00 0.00 55 1015.7
20260831155919 93 293 2.0 2.0 0.00 0.00 0.00 57 1015.7
20260831155414 92 181 1.0 3.0 0.00 0.00 0.00 58 1015.7
20260831154909 93 18 6.0 7.0 0.00 0.00 0.00 57 1015.7
20260831154406 92 83 2.0 2.0 0.00 0.00 0.00 59 1015.7
20260831153903 90 205 1.0 3.0 0.00 0.00 0.00 61 1015.7
20260831153400 89 152 0.0 1.0 0.00 0.00 0.00 64 1015.9
20260831152855 90 77 3.0 8.0 0.00 0.00 0.00 63 1015.7
20260831152351 93 94 2.0 3.0 0.00 0.00 0.00 59 1015.6
20260831151851 93 143 0.0 2.0 0.00 0.00 0.00 59 1015.7
20260831151350 91 115 0.0 1.0 0.00 0.00 0.00 61 1015.6
20260831150845 90 129 2.0 3.0 0.00 0.00 0.00 62 1015.7
20260831150341 90 96 1.0 2.0 0.00 0.00 0.00 63 1015.7
20260831145840 89 236 1.0 3.0 0.00 0.00 0.00 63 1015.5
20260831145337 89 211 2.0 3.0 0.00 0.00 0.00 63 1015.5
20260831144832 89 154 1.0 3.0 0.00 0.00 0.00 65 1015.5
20260831144329 89 98 1.0 4.0 0.00 0.00 0.00 65 1015.4
20260831143828 89 263 2.0 4.0 0.00 0.00 0.00 64 1015.4
20260831143324 89 162 1.0 3.0 0.00 0.00 0.00 64 1015.5
20260831142819 88 164 0.0 0.0 0.00 0.00 0.00 68 1015.4
20260831142314 87 166 1.0 3.0 0.00 0.00 0.00 71 1015.6
20260831141814 87 166 0.0 3.0 0.00 0.00 0.00 73 1015.6
20260831141308 86 150 1.0 2.0 0.00 0.00 0.00 73 1015.5
20260831140803 86 227 2.0 3.0 0.00 0.00 0.00 74 1015.5
20260831140258 86 202 1.0 3.0 0.00 0.00 0.00 76 1015.5
20260831135755 86 179 0.0 3.0 0.00 0.00 0.00 76 1015.3
20260831135251 85 168 0.0 2.0 0.00 0.00 0.00 78 1015.0
20260831134747 85 163 1.0 3.0 0.00 0.00 0.00 78 1015.1
20260831134244 85 148 1.0 2.0 0.00 0.00 0.00 79 1015.1
20260831133743 84 123 1.0 1.0 0.00 0.00 0.00 79 1015.3
20260831133242 84 117 1.0 3.0 0.00 0.00 0.00 80 1015.2
20260831132737 83 167 2.0 3.0 0.00 0.00 0.00 81 1015.0
20260831132232 83 335 1.0 2.0 0.00 0.00 0.00 82 1015.1
20260831131732 82 100 2.0 3.0 0.00 0.00 0.00 82 1014.9
20260831131229 82 79 2.0 3.0 0.00 0.00 0.00 83 1015.0
20260831130724 82 125 2.0 3.0 0.00 0.00 0.00 84 1014.8
20260831130219 81 123 2.0 2.0 0.00 0.00 0.00 84 1014.9
20260831125717 81 90 2.0 3.0 0.00 0.00 0.00 84 1014.6
20260831125214 81 302 2.0 4.0 0.00 0.00 0.00 84 1014.7
20260831124714 81 315 3.0 4.0 0.00 0.00 0.00 84 1014.7
20260831124211 81 205 2.0 2.0 0.00 0.00 0.00 84 1014.6
20260831123711 81 213 2.0 2.0 0.00 0.00 0.00 84 1014.6
20260831123210 81 101 1.0 2.0 0.00 0.00 0.00 84 1014.4
20260831122710 81 81 1.0 3.0 0.00 0.00 0.00 84 1014.4
20260831122206 81 340 2.0 2.0 0.00 0.00 0.00 84 1014.4
20260831121705 81 158 0.0 0.0 0.00 0.00 0.00 85 1014.2
20260831121202 81 162 0.0 0.0 0.00 0.00 0.00 84 1014.1
20260831120657 81 177 0.0 0.0 0.00 0.00 0.00 85 1014.2
20260831120157 81 153 0.0 0.0 0.00 0.00 0.00 85 1014.2
20260831115653 80 117 1.0 1.0 0.00 0.00 0.00 85 1014.0
20260831115148 80 139 0.0 0.0 0.00 0.00 0.00 85 1013.9
20260831114647 80 164 0.0 0.0 0.00 0.00 0.00 85 1013.9
20260831114142 80 162 0.0 0.0 0.00 0.00 0.00 84 1013.9
20260831113642 80 167 0.0 0.0 0.00 0.00 0.00 84 1014.0
20260831113137 81 194 0.0 1.0 0.00 0.00 0.00 84 1013.9
20260831112636 81 36 2.0 2.0 0.00 0.00 0.00 84 1013.9
20260831112131 81 123 0.0 0.0 0.00 0.00 0.00 84 1014.0
20260831111627 81 156 0.0 0.0 0.00 0.00 0.00 83 1014.0
20260831111123 81 170 0.0 0.0 0.00 0.00 0.00 83 1014.0
20260831110618 81 174 0.0 0.0 0.00 0.00 0.00 84 1014.0
20260831110114 81 184 0.0 0.0 0.00 0.00 0.00 84 1013.8
20260831105613 81 173 0.0 0.0 0.00 0.00 0.00 83 1014.1
20260831105108 81 183 1.0 2.0 0.00 0.00 0.00 84 1014.0
20260831104603 81 174 0.0 0.0 0.00 0.00 0.00 83 1013.8
20260831104059 81 161 0.0 1.0 0.00 0.00 0.00 83 1014.1
20260831103554 81 129 0.0 0.0 0.00 0.00 0.00 83 1013.9
20260831103051 81 153 1.0 2.0 0.00 0.00 0.00 83 1014.1
20260831102550 81 165 2.0 2.0 0.00 0.00 0.00 83 1014.0
20260831102045 81 139 0.0 0.0 0.00 0.00 0.00 82 1014.0